sat.trackr.live / text

‹ back to catalog

GAOFEN-13 02

NORAD 55912 · 2023-036A

PAYLOAD ACTIVE UNKNOWN

§ Identity

Operator
Country
PRC
Launch date
2023-03-17
Launch site
XICLF
Launch vehicle
Mass (kg)
RCS (m²)

Purposes: comms

External: N2YO · Heavens-Above · Gunter

§ Orbital elements

Epoch: 2026-09-19T19:23:14.917056Z

Period
1,436.04 min
Inclination
1.0095°
Eccentricity
0.0003190
Mean motion
1.00276023 rev/d
Perigee alt
35,772.0 km
Apogee alt
35,798.9 km
Semi-major
42,163.5 km
B*
0.0000e+0
RAAN
12.8160°
Arg perigee
307.3970°
Mean anomaly
117.4648°
Rev number
1,304

§ Raw data

GAOFEN-13 021 55912U 23036A   26262.80781154 -.00000222  00000+0  00000+0 0  99932 55912   1.0095  12.8160 0003190 307.3970 117.4648  1.00276023 13049

JSON: /api/v1/satellites/55912 · /tle

For live sub-satellite position, see the globe view (requires WebGL).

§ Visibility from observer

Set your observer location to see the next 7 days of passes ≥ 10°. The values pass through the URL so the page stays shareable.

No JS? Fill the form by hand. The geolocation button needs JavaScript.